Location: Moscow
(55.7500°N, 37.5830°E)
Time: 20:00:34
(UTC+03:00)

Tiros 1 despin weight - Pass Details

Date: 30 November 2021
Orbit: 592 x 641 km, 48.2° (Epoch: 19 January)

Event Time Altitude Azimuth Distance (km) Brightness Sun altitude
Rises 17:23:12 0° 248° (WSW) 2,822 ? -10.4°
Reaches altitude 10° 17:25:39 10° 237° (WSW) 1,921 ? -10.8°
Maximum altitude 17:29:31 31° 176° (S) 1,059 ? -11.3°
Drops below altitude 10° 17:33:24 10° 115° (ESE) 1,930 ? -11.8°
Enters shadow 17:33:47 - 112° (ESE) 2,068 ? -11.8°
